Location: Goettingen
(51.5300°N, 9.9433°E)
Time: 12:54:36
(UTC+01:00)

ISS - Pass Details

Date: 26 November 2023
Orbit: 416 x 417 km, 51.6° (Epoch: 02 December)

Event Time Altitude Azimuth Distance (km) Brightness Sun altitude
Rises 19:02:59 0° 279° (W) 2,363 1.4 -24.8°
Reaches altitude 10° 19:05:05 10° 278° (W) 1,499 0.1 -25.1°
Enters shadow 19:06:59 31° 275° (W) 754 -1.9 -25.4°
